COSMOS 1275 DEB, 15541

Orbit data source: Space-Track

COSMOS 1275 DEB, 15541 is space debris in LEO originally from a launch on Thu, 04 Jun 1981 UTC launched from the Plesetsk Missile And Space Complex (PKMTR). Debris objects in space refer to the collection of defunct objects orbiting the Earth. Examples of debris include non-operational satellites, rocket bodies, and fragments generated from explosions, collisions, or faulty payload assembly.

Loading next visibility...
Identifier
15541, 1981-053JZ
Orbit
LEO
Country
Flag of CISCIS
Related business
Manufacturer
Unknown
Mission
Spacecraft
Bus & Motor
Unknown
Mass
Unknown
Launch date (UTC)
1981-06-04 (45 years ago)
Launch vehicle
Unknown
Launch site
Plesetsk Missile And Space Complex (PKMTR)
Object type
Payload
Rocket body
Debris
Shape & HBR
Unknown shape, 0.1 m
Radar Cross Section
Small (<0.1 m²)

Expand to show TLE details & history
Last TLE update: 10 hours ago

TLE from 10 hours ago
0 COSMOS 1275 DEB
1 15541U 81053JZ  26119.15248735  .00000321  00000-0  26067-3 0  9997
2 15541  82.8929  14.0119 0032809 136.9968  15.4682 13.86827182114936
Epoch: 2026-04-29T03:39Z
TLE epoch observation values (Epoch: 2026-04-29T03:39:34.907Z)
Latitude
27.24468°
Longitude
-81.66277°
Altitude
919.97 km
Speed
7.406 km/s
True Right ascension
12h 41m 24s
True Declination
27° 06' 29"
Sunlit
Object was in full shadow at epoch
Visualization orbit readout
Latitude
Unknown
Longitude
Unknown
Altitude
Unknown
Speed
Unknown
Apparent Right ascension
Unknown
Apparent Declination
Unknown
Sunlit
N/A
Visualization observer readout
Local Sidereal Time
20:52:56
Azimuth
Unknown
Elevation
Unknown
Doppler factor
Unknown
Orbital elements
Apogee altitude
960.905 km
Perigee altitude
912.905 km
Semi-major axis
7,315.042 km
Eccentricity
0.00328
Inclination
82.8929°
RAAN
14.0119°
Arg. of periapsis
136.9968°
True anomaly
15.56887°
Mean anomaly
15.4682°
Eccentric anomaly
15.51849°
Mean motion
3.46911 °/min
Orbital period
103.77 mins
BSTAR
0.00026067
Loading maneuver chart data...
Computing Atmospheric mass density...

Documentation

Showing up to 5 results
|